Total_Precipitation_Accumulation
0.00 0.01 0.02 0.05 0.08 0.13 0.31 0.84 1.27 1.59 1.31 0.96 0.83 1.07 1.01 0.96 1.16 1.50 1.36 1.03 1.26 1.42 1.67 1.14 0.83 0.85 0.95 0.96 1.18 1.14 0.98 0.68 0.88 1.29 1.04 0.72 0.37 0.27 0.20 0.20 0.21 0.24 0.27
0.01 0.02 0.04 0.10 0.14 0.27 0.38 0.43 0.43 0.63 0.33 0.30 0.39 0.76 0.98 1.05 1.07 1.33 1.17 1.09 1.22 1.49 1.47 1.36 1.21 0.80 0.80 0.93 1.39 1.44 1.41 0.90 1.19 1.50 1.65 1.29 1.03 0.57 0.38 0.32 0.32 0.28 0.34
0.00 0.02 0.09 0.13 0.15 0.15 0.18 0.08 0.09 0.37 0.38 0.38 0.52 0.83 1.28 1.28 1.33 1.56 1.43 1.23 1.47 1.44 1.56 1.26 1.48 1.32 1.33 1.14 1.30 1.56 1.39 0.99 1.08 1.26 1.47 1.46 1.15 0.82 0.68 0.57 0.46 0.44 0.38
0.01 0.01 0.01 0.02 0.03 0.02 0.05 0.06 0.13 0.29 0.61 0.67 0.67 0.74 0.98 0.93 1.03 1.13 1.41 1.30 1.31 1.47 1.58 1.58 1.72 1.67 1.58 1.54 1.44 1.62 1.54 1.55 1.21 1.36 1.12 1.07 1.11 1.16 0.87 0.67 0.64 0.62 0.53
0.01 0.00 0.01 0.02 0.04 0.11 0.17 0.31 0.47 0.50 0.65 0.74 0.83 0.81 0.91 0.96 1.03 1.18 1.51 1.70 1.28 1.10 1.15 1.40 1.55 1.71 1.74 1.70 1.75 1.73 1.84 1.80 1.97 1.99 1.99 1.88 1.74 1.80 1.81 1.38 0.83 0.78 0.75
0.01 0.01 0.02 0.02 0.14 0.34 0.44 0.55 0.56 0.56 0.71 0.81 0.84 0.90 0.91 0.97 0.91 1.13 1.53 2.26 2.27 1.75 1.50 1.51 1.54 1.76 1.94 1.83 1.99 2.02 1.89 2.16 2.30 2.50 2.85 2.93 2.94 2.77 2.79 2.68 1.94 1.36 0.92
0.01 0.02 0.02 0.07 0.22 0.46 0.60 0.73 0.75 0.67 0.79 0.96 0.98 1.01 1.08 1.01 1.04 1.09 1.23 1.72 2.79 2.83 2.37 2.13 2.25 2.48 2.83 3.02 3.06 3.19 3.01 2.78 2.92 2.58 2.51 2.51 2.52 2.67 3.18 3.67 3.40 2.87 2.00
0.01 0.01 0.06 0.11 0.19 0.50 0.65 0.83 0.95 0.99 0.91 0.93 1.13 1.22 1.26 1.47 1.47 1.55 1.56 1.54 1.79 2.46 2.71 2.67 2.58 3.01 3.67 3.89 4.24 4.14 3.87 3.89 3.76 3.62 3.32 2.99 2.66 2.42 2.25 2.52 3.11 3.38 2.49
0.05 0.11 0.21 0.30 0.38 0.49 0.47 0.56 0.81 0.97 1.28 1.31 1.24 1.33 1.41 1.42 1.45 1.69 1.83 2.22 2.25 2.46 2.73 3.00 2.74 2.53 2.74 3.28 3.80 3.84 3.71 3.67 3.43 3.04 2.74 2.28 1.87 1.80 1.69 1.64 1.76 2.32 2.52
0.16 0.36 0.48 0.42 0.40 0.43 0.39 0.42 0.50 0.83 1.31 1.57 1.45 1.36 1.51 1.62 1.46 1.53 1.44 1.52 1.70 2.18 2.52 2.73 3.13 3.13 2.76 2.75 3.28 3.40 3.30 3.24 2.95 2.93 2.74 2.28 1.78 1.62 1.44 1.45 1.40 1.38 1.70
0.37 0.57 0.92 0.87 0.64 0.50 0.44 0.46 0.56 0.53 0.51 0.54 0.82 1.19 1.48 1.38 1.29 1.18 1.36 1.55 1.71 1.93 2.34 2.73 3.23 3.85 3.50 3.13 2.98 2.92 2.82 2.58 2.38 2.54 2.54 2.34 2.30 2.37 1.93 1.68 1.71 1.57 1.72
0.79 0.87 1.21 1.60 1.13 0.80 0.62 0.43 0.53 0.54 0.72 0.88 0.85 0.85 1.01 1.07 1.12 1.28 1.36 1.66 2.05 2.26 2.59 2.77 3.07 3.34 3.67 3.58 3.26 2.84 2.56 2.52 2.31 2.20 2.54 2.44 2.61 2.83 2.60 2.36 1.97 1.79 1.62
0.89 1.30 1.46 1.73 1.69 1.30 1.00 0.62 0.51 0.39 0.42 0.62 1.08 1.03 1.14 0.95 1.27 1.40 1.70 1.97 2.17 2.41 2.57 2.71 2.86 3.07 3.19 3.46 3.24 2.76 2.38 2.30 2.18 1.96 2.00 2.11 2.45 2.53 2.54 2.54 2.23 2.14 2.33
0.67 0.94 1.13 1.45 1.63 1.53 1.39 0.95 0.95 0.79 0.68 0.68 0.71 0.66 0.80 1.11 1.38 1.41 1.51 2.00 2.22 2.08 1.93 2.11 2.30 2.10 2.13 2.56 2.79 2.86 2.83 2.58 2.43 2.32 2.26 2.15 2.35 2.31 2.50 2.82 2.96 2.90 3.02
0.81 0.61 0.64 0.59 0.58 0.65 0.68 0.76 0.66 0.65 0.74 0.74 0.74 0.65 0.80 1.25 1.48 1.83 1.84 1.59 1.30 1.22 1.29 1.40 1.52 1.61 1.78 2.31 2.45 2.53 2.56 2.78 2.86 2.76 2.74 2.74 3.00 3.10 2.95 2.82 2.73 2.98 3.08
0.28 0.29 0.22 0.23 0.27 0.33 0.39 0.52 0.61 0.54 0.51 0.54 0.53 0.73 0.91 0.80 0.88 0.88 0.83 0.84 0.95 1.00 0.97 0.81 0.82 0.93 1.16 1.99 2.29 2.52 2.52 2.69 3.03 2.85 2.58 2.56 2.94 2.75 3.22 3.21 3.31 3.19 3.06
0.07 0.15 0.21 0.17 0.27 0.29 0.31 0.44 0.57 0.57 0.43 0.40 0.43 0.51 0.55 0.57 0.51 0.48 0.50 0.56 0.64 0.71 0.84 0.94 0.79 0.63 0.93 1.70 1.75 2.22 2.17 2.46 2.83 2.84 2.73 2.82 3.19 3.18 2.73 3.23 3.29 3.59 3.56
0.07 0.06 0.09 0.06 0.13 0.26 0.44 0.52 0.55 0.60 0.59 0.43 0.37 0.34 0.38 0.48 0.50 0.61 0.73 0.77 0.81 0.72 0.72 0.86 1.27 1.64 1.60 1.85 1.73 1.95 1.75 1.86 2.26 2.47 2.59 2.76 2.94 3.03 2.88 2.94 3.14 2.90 2.74
0.05 0.02 0.02 0.01 0.02 0.10 0.38 0.76 0.90 0.72 0.72 0.60 0.54 0.50 0.55 0.66 0.80 0.94 1.01 0.92 0.89 0.99 0.99 1.01 1.10 1.14 1.58 2.07 1.53 1.40 1.35 1.44 1.47 1.60 1.94 2.27 2.55 3.33 3.01 2.87 3.09 2.91 2.62
0.01 0.01 0.01 0.01 0.03 0.09 0.27 0.48 0.88 1.04 0.86 0.87 0.83 0.91 0.89 0.93 1.05 1.02 0.91 0.89 0.99 1.06 1.19 1.31 1.07 1.19 1.07 1.58 1.37 1.13 0.86 1.10 1.08 1.04 1.40 1.98 1.99 2.32 2.16 2.19 2.20 2.41 2.31
0.00 0.01 0.02 0.02 0.02 0.08 0.24 0.57 0.84 1.30 1.38 1.19 1.30 1.30 1.29 1.30 1.16 1.08 1.02 1.05 1.10 1.12 1.08 1.08 1.16 1.16 1.08 1.17 1.18 1.09 0.78 0.93 1.07 0.95 0.91 1.07 1.49 1.54 1.61 1.68 1.77 1.94 1.77
0.01 0.01 0.01 0.03 0.04 0.06 0.10 0.30 0.74 1.50 2.08 1.90 1.58 1.54 1.39 1.13 1.08 1.02 1.00 0.98 0.99 1.09 1.14 1.10 1.14 1.24 1.39 1.49 1.26 1.11 1.06 1.04 1.21 1.34 1.35 1.45 1.31 1.08 1.09 1.30 1.60 1.60 1.48
0.00 0.01 0.02 0.05 0.09 0.11 0.12 0.20 0.34 0.66 1.69 2.51 2.46 1.96 1.46 1.35 1.34 1.32 1.29 1.22 1.20 1.21 1.33 1.37 1.39 1.40 1.33 1.56 1.66 1.52 1.33 1.14 1.05 1.23 1.45 1.49 1.33 1.09 1.06 1.04 1.10 1.24 1.44
0.03 0.04 0.06 0.06 0.04 0.05 0.10 0.23 0.38 0.60 1.03 1.63 2.22 2.55 2.56 1.89 1.76 1.97 1.94 2.08 2.13 1.90 1.88 2.00 2.02 1.88 1.72 1.60 1.53 1.50 1.50 1.44 1.36 1.44 1.37 1.25 1.11 1.08 1.25 1.25 1.10 1.13 1.21
0.20 0.17 0.19 0.19 0.15 0.15 0.18 0.25 0.43 0.56 0.69 1.03 1.55 1.91 2.72 2.75 1.97 1.89 2.06 1.96 2.27 2.35 2.15 2.02 2.00 2.12 2.17 1.98 1.89 1.67 1.47 1.40 1.35 1.39 1.45 1.32 1.03 0.90 0.82 0.78 0.70 0.72 0.79
0.36 0.34 0.33 0.37 0.44 0.47 0.44 0.44 0.47 0.53 0.67 1.01 1.54 1.88 2.21 2.94 2.92 2.37 2.75 3.12 3.08 3.04 2.99 2.98 2.70 2.75 2.58 2.39 1.99 1.80 1.73 1.58 1.36 1.23 1.02 0.94 0.92 0.90 0.81 0.89 0.97 0.79 0.73